Time,TemperatureF,DewpointF,PressureIn,WindDirection,WindDirectionDegrees,WindSpeedMPH,WindSpeedGustMPH,Humidity,HourlyPrecipIn,Conditions,Clouds,dailyrainin,SoftwareType,DateUTC
2013-06-27 00:02:00,70.7,68.0,29.91,SSW,202,1.0,0.0,91,0.00,,,0.00,meteohub,2013-06-27 04:02:00,
2013-06-27 00:07:00,70.7,68.0,29.91,West,270,0.0,2.0,91,0.00,,,0.00,meteohub,2013-06-27 04:07:00,
2013-06-27 00:12:00,70.7,67.6,29.91,SSE,158,0.0,2.0,90,0.00,,,0.00,meteohub,2013-06-27 04:12:00,
2013-06-27 00:17:00,70.7,67.6,29.88,South,180,0.0,2.0,90,0.00,,,0.00,meteohub,2013-06-27 04:17:00,
2013-06-27 00:22:00,70.7,67.6,29.88,WSW,248,0.0,2.0,90,0.00,,,0.00,meteohub,2013-06-27 04:22:00,
2013-06-27 00:27:00,70.5,67.5,29.88,South,180,0.0,2.0,90,0.00,,,0.00,meteohub,2013-06-27 04:27:00,
2013-06-27 00:32:00,70.5,67.5,29.88,ENE,68,0.0,0.0,90,0.00,,,0.00,meteohub,2013-06-27 04:32:00,
2013-06-27 00:37:00,70.5,67.1,29.88,SSE,158,0.0,0.0,89,0.00,,,0.00,meteohub,2013-06-27 04:37:00,
2013-06-27 00:42:00,70.5,67.1,29.88,ESE,112,0.0,0.0,89,0.00,,,0.00,meteohub,2013-06-27 04:42:00,
2013-06-27 00:47:00,70.3,66.9,29.88,South,180,0.0,2.0,89,0.00,,,0.00,meteohub,2013-06-27 04:47:00,
2013-06-27 00:52:00,70.2,67.1,29.88,South,180,0.0,2.0,90,0.00,,,0.00,meteohub,2013-06-27 04:52:00,
2013-06-27 00:57:00,70.2,67.1,29.88,SSE,158,0.0,0.0,90,0.00,,,0.00,meteohub,2013-06-27 04:57:00,
2013-06-27 01:02:00,70.0,66.9,29.88,SSE,158,0.0,0.0,90,0.00,,,0.00,meteohub,2013-06-27 05:02:00,
2013-06-27 01:07:00,69.8,66.7,29.88,South,180,0.0,0.0,90,0.00,,,0.00,meteohub,2013-06-27 05:07:00,
2013-06-27 01:12:00,69.4,66.7,29.88,South,180,0.0,0.0,91,0.00,,,0.00,meteohub,2013-06-27 05:12:00,
2013-06-27 01:17:00,69.4,66.7,29.88,WSW,248,0.0,0.0,91,0.00,,,0.00,meteohub,2013-06-27 05:17:00,
2013-06-27 01:22:00,69.3,66.9,29.88,SW,225,0.0,0.0,92,0.00,,,0.00,meteohub,2013-06-27 05:22:00,
2013-06-27 01:27:00,69.3,66.6,29.88,SW,225,0.0,0.0,91,0.00,,,0.00,meteohub,2013-06-27 05:27:00,
2013-06-27 01:32:00,69.1,66.7,29.88,SW,225,0.0,0.0,92,0.00,,,0.00,meteohub,2013-06-27 05:32:00,
2013-06-27 01:37:00,68.7,66.4,29.88,South,180,0.0,0.0,92,0.00,,,0.00,meteohub,2013-06-27 05:37:00,
2013-06-27 01:42:00,68.5,66.2,29.88,South,180,0.0,0.0,92,0.00,,,0.00,meteohub,2013-06-27 05:42:00,
2013-06-27 01:47:00,68.5,66.2,29.88,South,180,0.0,0.0,92,0.00,,,0.00,meteohub,2013-06-27 05:47:00,
2013-06-27 01:52:00,68.4,66.0,29.88,South,180,0.0,0.0,92,0.00,,,0.00,meteohub,2013-06-27 05:52:00,
2013-06-27 01:57:00,68.4,66.0,29.88,South,180,0.0,0.0,92,0.00,,,0.00,meteohub,2013-06-27 05:57:00,
2013-06-27 02:02:00,68.2,66.0,29.88,South,180,0.0,0.0,93,0.00,,,0.00,meteohub,2013-06-27 06:02:00,
2013-06-27 02:07:00,68.2,66.0,29.88,South,180,0.0,0.0,93,0.00,,,0.00,meteohub,2013-06-27 06:07:00,
2013-06-27 02:12:00,68.2,66.0,29.88,South,180,0.0,0.0,93,0.00,,,0.00,meteohub,2013-06-27 06:12:00,
2013-06-27 02:17:00,68.4,66.2,29.88,South,180,0.0,0.0,93,0.00,,,0.00,meteohub,2013-06-27 06:17:00,
2013-06-27 02:22:00,68.4,66.2,29.88,South,180,0.0,0.0,93,0.00,,,0.00,meteohub,2013-06-27 06:22:00,
2013-06-27 02:27:00,68.4,66.6,29.88,South,180,0.0,0.0,94,0.00,,,0.00,meteohub,2013-06-27 06:27:00,
2013-06-27 02:32:00,68.4,66.6,29.88,South,180,0.0,0.0,94,0.00,,,0.00,meteohub,2013-06-27 06:32:00,
2013-06-27 02:37:00,68.5,66.7,29.88,South,180,0.0,0.0,94,0.00,,,0.00,meteohub,2013-06-27 06:37:00,
2013-06-27 02:42:00,68.5,66.7,29.88,SSW,202,0.0,2.0,94,0.00,,,0.00,meteohub,2013-06-27 06:42:00,
2013-06-27 02:47:00,68.4,66.6,29.88,WSW,248,0.0,2.0,94,0.00,,,0.00,meteohub,2013-06-27 06:47:00,
2013-06-27 02:52:00,68.4,66.6,29.88,West,270,0.0,2.0,94,0.00,,,0.00,meteohub,2013-06-27 06:52:00,
2013-06-27 02:57:00,68.4,66.6,29.88,WNW,292,0.0,2.0,94,0.00,,,0.00,meteohub,2013-06-27 06:57:00,
2013-06-27 03:02:00,68.4,66.2,29.88,ESE,112,0.0,2.0,93,0.00,,,0.00,meteohub,2013-06-27 07:02:00,
2013-06-27 03:07:00,68.4,66.2,29.88,SSW,202,0.0,1.0,93,0.00,,,0.00,meteohub,2013-06-27 07:07:00,
2013-06-27 03:12:00,68.4,66.2,29.88,NE,45,1.0,2.0,93,0.00,,,0.00,meteohub,2013-06-27 07:12:00,
2013-06-27 03:17:00,68.4,66.2,29.88,South,180,0.0,3.0,93,0.00,,,0.00,meteohub,2013-06-27 07:17:00,
2013-06-27 03:22:00,68.4,66.2,29.88,SSW,202,0.0,3.0,93,0.00,,,0.00,meteohub,2013-06-27 07:22:00,
2013-06-27 03:27:00,68.4,66.2,29.88,NE,45,2.0,3.0,93,0.00,,,0.00,meteohub,2013-06-27 07:27:00,
2013-06-27 03:32:00,68.4,66.2,29.88,NE,45,2.0,2.0,93,0.00,,,0.00,meteohub,2013-06-27 07:32:00,
2013-06-27 03:37:00,68.4,66.2,29.88,ESE,112,0.0,2.0,93,0.00,,,0.00,meteohub,2013-06-27 07:37:00,
2013-06-27 03:42:00,68.4,66.2,29.88,ENE,68,0.0,2.0,93,0.00,,,0.00,meteohub,2013-06-27 07:42:00,
2013-06-27 03:47:00,68.4,66.2,29.88,SSE,158,0.0,2.0,93,0.00,,,0.00,meteohub,2013-06-27 07:47:00,
2013-06-27 03:52:00,68.4,66.2,29.88,South,180,0.0,1.0,93,0.00,,,0.00,meteohub,2013-06-27 07:52:00,
2013-06-27 03:57:00,68.4,66.2,29.88,SE,135,0.0,0.0,93,0.00,,,0.00,meteohub,2013-06-27 07:57:00,
2013-06-27 04:02:00,68.4,66.2,29.88,SE,135,0.0,0.0,93,0.00,,,0.00,meteohub,2013-06-27 08:02:00,
2013-06-27 04:07:00,68.2,66.0,29.88,NE,45,1.0,1.0,93,0.00,,,0.00,meteohub,2013-06-27 08:07:00,
2013-06-27 04:12:00,68.2,66.0,29.88,ENE,68,0.0,2.0,93,0.00,,,0.00,meteohub,2013-06-27 08:12:00,
2013-06-27 04:17:00,68.2,66.0,29.88,NE,45,0.0,2.0,93,0.00,,,0.00,meteohub,2013-06-27 08:17:00,
2013-06-27 04:22:00,68.2,66.0,29.88,NNW,338,0.0,2.0,93,0.00,,,0.00,meteohub,2013-06-27 08:22:00,
2013-06-27 04:27:00,68.2,66.0,29.88,NNW,338,0.0,2.0,93,0.00,,,0.00,meteohub,2013-06-27 08:27:00,
2013-06-27 04:32:00,68.0,65.8,29.88,SSE,158,0.0,2.0,93,0.00,,,0.00,meteohub,2013-06-27 08:32:00,
2013-06-27 04:37:00,67.8,66.0,29.88,SSW,202,0.0,2.0,94,0.00,,,0.00,meteohub,2013-06-27 08:37:00,
2013-06-27 04:42:00,67.8,66.0,29.88,SW,225,0.0,3.0,94,0.00,,,0.00,meteohub,2013-06-27 08:42:00,
2013-06-27 04:47:00,67.8,66.0,29.88,South,180,0.0,3.0,94,0.00,,,0.00,meteohub,2013-06-27 08:47:00,
2013-06-27 04:52:00,67.8,66.0,29.88,South,180,1.0,3.0,94,0.00,,,0.00,meteohub,2013-06-27 08:52:00,
2013-06-27 04:57:00,67.6,65.8,29.88,South,180,2.0,2.0,94,0.00,,,0.00,meteohub,2013-06-27 08:57:00,
2013-06-27 05:02:00,67.6,65.8,29.88,SSW,202,0.0,2.0,94,0.00,,,0.00,meteohub,2013-06-27 09:02:00,
2013-06-27 05:07:00,67.6,66.2,29.88,NNE,22,3.0,3.0,95,0.00,,,0.00,meteohub,2013-06-27 09:07:00,
2013-06-27 05:12:00,67.8,66.4,29.88,SE,135,0.0,3.0,95,0.00,,,0.00,meteohub,2013-06-27 09:12:00,
2013-06-27 05:17:00,67.6,66.2,29.88,NE,45,0.0,3.0,95,0.00,,,0.00,meteohub,2013-06-27 09:17:00,
2013-06-27 05:22:00,67.6,66.2,29.88,SSE,158,0.0,3.0,95,0.00,,,0.00,meteohub,2013-06-27 09:22:00,
2013-06-27 05:27:00,67.3,65.8,29.88,NNE,22,0.0,4.0,95,0.00,,,0.00,meteohub,2013-06-27 09:27:00,
2013-06-27 05:32:00,67.1,65.7,29.88,SSE,158,1.0,4.0,95,0.00,,,0.00,meteohub,2013-06-27 09:32:00,
2013-06-27 05:37:00,67.1,65.8,29.88,ESE,112,1.0,4.0,96,0.00,,,0.00,meteohub,2013-06-27 09:37:00,
2013-06-27 05:42:00,66.9,65.7,29.88,NE,45,1.0,3.0,96,0.00,,,0.00,meteohub,2013-06-27 09:42:00,
2013-06-27 05:47:00,66.9,65.7,29.91,SE,135,1.0,3.0,96,0.00,,,0.00,meteohub,2013-06-27 09:47:00,
2013-06-27 05:52:00,66.9,66.0,29.91,West,270,0.0,3.0,97,0.00,,,0.00,meteohub,2013-06-27 09:52:00,
2013-06-27 05:57:00,66.7,65.8,29.91,NNE,22,0.0,4.0,97,0.00,,,0.00,meteohub,2013-06-27 09:57:00,
2013-06-27 06:02:00,66.7,65.8,29.91,NE,45,3.0,4.0,97,0.00,,,0.00,meteohub,2013-06-27 10:02:00,
2013-06-27 06:07:00,66.6,65.7,29.91,North,0,0.0,4.0,97,0.00,,,0.00,meteohub,2013-06-27 10:07:00,
2013-06-27 06:12:00,66.6,65.7,29.91,South,180,0.0,4.0,97,0.00,,,0.00,meteohub,2013-06-27 10:12:00,
2013-06-27 06:17:00,66.6,65.7,29.91,NE,45,0.0,3.0,97,0.00,,,0.00,meteohub,2013-06-27 10:17:00,
2013-06-27 06:22:00,66.6,65.7,29.91,North,0,2.0,3.0,97,0.00,,,0.00,meteohub,2013-06-27 10:22:00,
2013-06-27 06:27:00,66.4,65.5,29.91,NE,45,0.0,3.0,97,0.00,,,0.00,meteohub,2013-06-27 10:27:00,
2013-06-27 06:32:00,66.2,65.3,29.91,South,180,0.0,4.0,97,0.00,,,0.00,meteohub,2013-06-27 10:32:00,
2013-06-27 06:37:00,66.2,65.3,29.91,West,270,1.0,4.0,97,0.00,,,0.00,meteohub,2013-06-27 10:37:00,
2013-06-27 06:42:00,66.2,65.3,29.91,West,270,0.0,4.0,97,0.00,,,0.00,meteohub,2013-06-27 10:42:00,
2013-06-27 06:47:00,66.0,65.1,29.94,ENE,68,0.0,4.0,97,0.00,,,0.00,meteohub,2013-06-27 10:47:00,
2013-06-27 06:52:00,66.0,65.1,29.94,North,0,0.0,4.0,97,0.00,,,0.00,meteohub,2013-06-27 10:52:00,
2013-06-27 06:57:00,65.7,64.8,29.94,NNW,338,1.0,1.0,97,0.00,,,0.00,meteohub,2013-06-27 10:57:00,
2013-06-27 07:02:00,65.5,64.6,29.91,West,270,0.0,2.0,97,0.00,,,0.00,meteohub,2013-06-27 11:02:00,
2013-06-27 07:07:00,65.3,64.4,29.91,WNW,292,0.0,3.0,97,0.00,,,0.00,meteohub,2013-06-27 11:07:00,
2013-06-27 07:12:00,65.1,64.2,29.91,WSW,248,0.0,3.0,97,0.00,,,0.00,meteohub,2013-06-27 11:12:00,
2013-06-27 07:17:00,64.9,64.0,29.94,ESE,112,1.0,3.0,97,0.00,,,0.00,meteohub,2013-06-27 11:17:00,
2013-06-27 07:22:00,64.9,64.0,29.94,NNE,22,4.0,4.0,97,0.00,,,0.00,meteohub,2013-06-27 11:22:00,
2013-06-27 07:27:00,64.8,63.9,29.94,NNE,22,3.0,4.0,97,0.00,,,0.00,meteohub,2013-06-27 11:27:00,
2013-06-27 07:32:00,64.8,63.9,29.94,ENE,68,0.0,4.0,97,0.00,,,0.00,meteohub,2013-06-27 11:32:00,
2013-06-27 07:37:00,64.8,63.9,29.94,NNW,338,2.0,4.0,97,0.00,,,0.00,meteohub,2013-06-27 11:37:00,
2013-06-27 07:42:00,64.8,64.2,29.94,SSW,202,0.0,4.0,98,0.00,,,0.00,meteohub,2013-06-27 11:42:00,
2013-06-27 07:47:00,64.6,63.7,29.94,East,90,1.0,4.0,97,0.00,,,0.00,meteohub,2013-06-27 11:47:00,
2013-06-27 07:52:00,64.6,64.0,29.94,NE,45,0.0,4.0,98,0.00,,,0.00,meteohub,2013-06-27 11:52:00,
2013-06-27 07:57:00,64.8,64.2,29.94,ENE,68,4.0,4.0,98,0.00,,,0.00,meteohub,2013-06-27 11:57:00,
2013-06-27 08:02:00,64.8,64.2,29.94,NE,45,0.0,4.0,98,0.00,,,0.00,meteohub,2013-06-27 12:02:00,
2013-06-27 08:07:00,64.8,63.9,29.94,ENE,68,0.0,4.0,97,0.00,,,0.00,meteohub,2013-06-27 12:07:00,
2013-06-27 08:12:00,64.9,64.4,29.94,South,180,0.0,4.0,98,0.00,,,0.00,meteohub,2013-06-27 12:12:00,
2013-06-27 08:17:00,64.8,63.9,29.94,NNE,22,3.0,4.0,97,0.00,,,0.00,meteohub,2013-06-27 12:17:00,
2013-06-27 08:22:00,64.9,64.0,29.94,NE,45,1.0,4.0,97,0.00,,,0.00,meteohub,2013-06-27 12:22:00,
2013-06-27 08:27:00,64.9,64.0,29.94,SE,135,2.0,6.0,97,0.00,,,0.00,meteohub,2013-06-27 12:27:00,
2013-06-27 08:32:00,65.1,64.2,29.94,SSE,158,0.0,6.0,97,0.00,,,0.00,meteohub,2013-06-27 12:32:00,
2013-06-27 08:37:00,65.3,64.4,29.94,SSW,202,0.0,6.0,97,0.00,,,0.00,meteohub,2013-06-27 12:37:00,
2013-06-27 08:42:00,65.1,64.2,29.94,ENE,68,0.0,3.0,97,0.00,,,0.00,meteohub,2013-06-27 12:42:00,
2013-06-27 08:47:00,65.1,64.2,29.94,NE,45,0.0,3.0,97,0.00,,,0.00,meteohub,2013-06-27 12:47:00,
2013-06-27 08:52:00,65.3,64.4,29.94,South,180,0.0,3.0,97,0.00,,,0.00,meteohub,2013-06-27 12:52:00,
2013-06-27 08:57:00,65.5,64.6,29.94,South,180,1.0,4.0,97,0.00,,,0.00,meteohub,2013-06-27 12:57:00,
2013-06-27 09:02:00,65.5,64.6,29.91,SSE,158,2.0,4.0,97,0.00,,,0.00,meteohub,2013-06-27 13:02:00,
2013-06-27 09:07:00,65.7,64.8,29.91,NE,45,5.0,5.0,97,0.00,,,0.00,meteohub,2013-06-27 13:07:00,
2013-06-27 09:12:00,65.5,64.2,29.91,NNE,22,4.0,5.0,96,0.00,,,0.00,meteohub,2013-06-27 13:12:00,
2013-06-27 09:17:00,65.5,64.2,29.91,North,0,1.0,5.0,96,0.00,,,0.00,meteohub,2013-06-27 13:17:00,
2013-06-27 09:22:00,65.7,64.4,29.91,ENE,68,0.0,5.0,96,0.00,,,0.00,meteohub,2013-06-27 13:22:00,
2013-06-27 09:27:00,65.7,64.4,29.91,NE,45,1.0,4.0,96,0.00,,,0.00,meteohub,2013-06-27 13:27:00,
2013-06-27 09:32:00,65.7,64.2,29.91,SE,135,2.0,3.0,95,0.00,,,0.00,meteohub,2013-06-27 13:32:00,
2013-06-27 09:37:00,65.7,64.2,29.91,NNE,22,1.0,3.0,95,0.00,,,0.00,meteohub,2013-06-27 13:37:00,
2013-06-27 09:42:00,65.8,64.4,29.91,NE,45,3.0,3.0,95,0.00,,,0.00,meteohub,2013-06-27 13:42:00,
2013-06-27 09:47:00,66.0,64.6,29.88,North,0,2.0,4.0,95,0.00,,,0.00,meteohub,2013-06-27 13:47:00,
2013-06-27 09:52:00,66.2,64.4,29.88,NE,45,0.0,4.0,94,0.00,,,0.00,meteohub,2013-06-27 13:52:00,
2013-06-27 09:57:00,66.2,64.4,29.88,NE,45,0.0,4.0,94,0.00,,,0.00,meteohub,2013-06-27 13:57:00,
2013-06-27 10:02:00,66.4,64.6,29.88,NE,45,4.0,4.0,94,0.00,,,0.00,meteohub,2013-06-27 14:02:00,
2013-06-27 10:07:00,66.4,64.2,29.91,East,90,0.0,5.0,93,0.00,,,0.00,meteohub,2013-06-27 14:07:00,
2013-06-27 10:12:00,66.6,64.4,29.91,South,180,0.0,5.0,93,0.00,,,0.00,meteohub,2013-06-27 14:12:00,
2013-06-27 10:17:00,66.6,64.4,29.91,SSW,202,0.0,4.0,93,0.00,,,0.00,meteohub,2013-06-27 14:17:00,
2013-06-27 10:22:00,66.7,64.6,29.88,SW,225,2.0,4.0,93,0.00,,,0.00,meteohub,2013-06-27 14:22:00,
2013-06-27 10:27:00,66.9,64.8,29.88,South,180,0.0,3.0,93,0.00,,,0.00,meteohub,2013-06-27 14:27:00,
2013-06-27 10:32:00,67.1,64.8,29.88,ESE,112,2.0,3.0,92,0.00,,,0.00,meteohub,2013-06-27 14:32:00,
2013-06-27 10:37:00,67.1,64.8,29.88,ESE,112,0.0,3.0,92,0.00,,,0.00,meteohub,2013-06-27 14:37:00,
2013-06-27 10:42:00,67.1,64.4,29.88,WNW,292,0.0,2.0,91,0.00,,,0.00,meteohub,2013-06-27 14:42:00,
2013-06-27 10:47:00,67.3,64.9,29.91,North,0,0.0,3.0,92,0.00,,,0.00,meteohub,2013-06-27 14:47:00,
2013-06-27 10:52:00,67.5,65.1,29.91,NNE,22,2.0,3.0,92,0.00,,,0.00,meteohub,2013-06-27 14:52:00,
2013-06-27 10:57:00,67.5,64.4,29.91,SE,135,4.0,4.0,90,0.00,,,0.00,meteohub,2013-06-27 14:57:00,
2013-06-27 11:02:00,67.5,64.8,29.91,WSW,248,0.0,4.0,91,0.00,,,0.00,meteohub,2013-06-27 15:02:00,
2013-06-27 11:07:00,67.8,65.1,29.88,NNE,22,3.0,4.0,91,0.00,,,0.00,meteohub,2013-06-27 15:07:00,
2013-06-27 11:12:00,68.0,65.3,29.88,SE,135,0.0,4.0,91,0.00,,,0.00,meteohub,2013-06-27 15:12:00,
2013-06-27 11:17:00,68.0,64.9,29.88,WNW,292,0.0,4.0,90,0.00,,,0.00,meteohub,2013-06-27 15:17:00,
2013-06-27 11:22:00,68.2,65.1,29.88,WSW,248,0.0,4.0,90,0.00,,,0.00,meteohub,2013-06-27 15:22:00,
2013-06-27 11:27:00,68.2,65.1,29.88,WSW,248,0.0,2.0,90,0.00,,,0.00,meteohub,2013-06-27 15:27:00,
2013-06-27 11:32:00,68.2,65.1,29.88,SE,135,0.0,2.0,90,0.00,,,0.00,meteohub,2013-06-27 15:32:00,
2013-06-27 11:37:00,68.4,65.3,29.88,SSW,202,0.0,1.0,90,0.00,,,0.00,meteohub,2013-06-27 15:37:00,
2013-06-27 11:42:00,68.5,65.5,29.88,South,180,0.0,0.0,90,0.00,,,0.00,meteohub,2013-06-27 15:42:00,
2013-06-27 11:47:00,68.7,65.7,29.88,ESE,112,0.0,1.0,90,0.00,,,0.00,meteohub,2013-06-27 15:47:00,
2013-06-27 11:52:00,68.9,65.5,29.88,NNW,338,3.0,3.0,89,0.00,,,0.00,meteohub,2013-06-27 15:52:00,
2013-06-27 11:57:00,69.1,65.7,29.88,West,270,0.0,3.0,89,0.00,,,0.00,meteohub,2013-06-27 15:57:00,
2013-06-27 12:02:00,69.1,65.7,29.88,SE,135,0.0,3.0,89,0.00,,,0.00,meteohub,2013-06-27 16:02:00,
2013-06-27 12:07:00,69.3,65.8,29.88,NE,45,0.0,3.0,89,0.00,,,0.00,meteohub,2013-06-27 16:07:00,
2013-06-27 12:12:00,69.3,65.8,29.88,South,180,1.0,2.0,89,0.00,,,0.00,meteohub,2013-06-27 16:12:00,
2013-06-27 12:17:00,69.4,65.7,29.88,NNE,22,0.0,3.0,88,0.00,,,0.00,meteohub,2013-06-27 16:17:00,
2013-06-27 12:22:00,69.3,65.5,29.88,ENE,68,0.0,3.0,88,0.00,,,0.00,meteohub,2013-06-27 16:22:00,
2013-06-27 12:27:00,69.4,65.7,29.88,South,180,0.0,3.0,88,0.00,,,0.00,meteohub,2013-06-27 16:27:00,
2013-06-27 12:32:00,69.8,66.0,29.88,WSW,248,0.0,0.0,88,0.00,,,0.00,meteohub,2013-06-27 16:32:00,
2013-06-27 12:37:00,70.3,66.6,29.88,WSW,248,2.0,0.0,88,0.00,,,0.00,meteohub,2013-06-27 16:37:00,
2013-06-27 12:42:00,70.5,65.8,29.88,South,180,0.0,4.0,85,0.00,,,0.00,meteohub,2013-06-27 16:42:00,
2013-06-27 12:47:00,70.5,65.8,29.85,NE,45,3.0,4.0,85,0.00,,,0.00,meteohub,2013-06-27 16:47:00,
2013-06-27 12:52:00,70.7,66.0,29.85,SE,135,0.0,4.0,85,0.00,,,0.00,meteohub,2013-06-27 16:52:00,
2013-06-27 12:57:00,71.1,66.4,29.85,ESE,112,3.0,4.0,85,0.00,,,0.00,meteohub,2013-06-27 16:57:00,
2013-06-27 13:02:00,71.1,66.0,29.85,SW,225,0.0,4.0,84,0.00,,,0.00,meteohub,2013-06-27 17:02:00,
2013-06-27 13:07:00,71.2,66.6,29.88,SE,135,2.0,4.0,85,0.00,,,0.00,meteohub,2013-06-27 17:07:00,
2013-06-27 13:12:00,71.4,66.4,29.88,ENE,68,3.0,4.0,84,0.00,,,0.00,meteohub,2013-06-27 17:12:00,
2013-06-27 13:17:00,71.8,66.7,29.88,NE,45,0.0,4.0,84,0.00,,,0.00,meteohub,2013-06-27 17:17:00,
2013-06-27 13:22:00,72.0,66.9,29.85,SSE,158,3.0,3.0,84,0.00,,,0.00,meteohub,2013-06-27 17:22:00,
2013-06-27 13:27:00,72.1,66.4,29.85,SE,135,0.0,3.0,82,0.00,,,0.00,meteohub,2013-06-27 17:27:00,
2013-06-27 13:32:00,72.1,66.4,29.85,SE,135,2.0,3.0,82,0.00,,,0.00,meteohub,2013-06-27 17:32:00,
2013-06-27 13:37:00,72.1,66.0,29.85,SE,135,0.0,4.0,81,0.00,,,0.00,meteohub,2013-06-27 17:37:00,
2013-06-27 13:42:00,72.3,66.2,29.85,SSE,158,0.0,4.0,81,0.00,,,0.00,meteohub,2013-06-27 17:42:00,
2013-06-27 13:47:00,72.3,66.2,29.85,SSW,202,1.0,4.0,81,0.00,,,0.00,meteohub,2013-06-27 17:47:00,
2013-06-27 13:52:00,72.1,66.4,29.85,ESE,112,2.0,4.0,82,0.00,,,0.00,meteohub,2013-06-27 17:52:00,
2013-06-27 13:57:00,72.1,66.0,29.85,East,90,3.0,3.0,81,0.00,,,0.00,meteohub,2013-06-27 17:57:00,
2013-06-27 14:02:00,72.0,66.2,29.88,SSE,158,0.0,3.0,82,0.00,,,0.00,meteohub,2013-06-27 18:02:00,
2013-06-27 14:07:00,72.0,66.6,29.88,SSW,202,1.0,3.0,83,0.00,,,0.00,meteohub,2013-06-27 18:07:00,
2013-06-27 14:12:00,71.8,66.7,29.88,ENE,68,0.0,3.0,84,0.00,,,0.00,meteohub,2013-06-27 18:12:00,
2013-06-27 14:17:00,71.6,66.9,29.85,South,180,1.0,3.0,85,0.00,,,0.00,meteohub,2013-06-27 18:17:00,
2013-06-27 14:22:00,71.4,67.1,29.85,South,180,1.0,3.0,86,0.00,,,0.00,meteohub,2013-06-27 18:22:00,
2013-06-27 14:32:00,71.2,67.8,29.88,South,180,0.0,2.0,89,0.00,,,0.00,meteohub,2013-06-27 18:32:00,
2013-06-27 14:37:00,71.2,67.8,29.88,NE,45,1.0,2.0,89,0.00,,,0.00,meteohub,2013-06-27 18:37:00,
2013-06-27 14:42:00,71.4,68.0,29.88,NE,45,0.0,3.0,89,0.00,,,0.00,meteohub,2013-06-27 18:42:00,
2013-06-27 14:47:00,71.4,68.0,29.85,SSE,158,0.0,3.0,89,0.00,,,0.00,meteohub,2013-06-27 18:47:00,
2013-06-27 14:52:00,71.2,67.8,29.85,NNE,22,0.0,3.0,89,0.00,,,0.00,meteohub,2013-06-27 18:52:00,
2013-06-27 14:57:00,71.2,67.8,29.85,East,90,0.0,3.0,89,0.00,,,0.00,meteohub,2013-06-27 18:57:00,
2013-06-27 15:02:00,71.1,68.0,29.85,North,0,1.0,2.0,90,0.00,,,0.00,meteohub,2013-06-27 19:02:00,
2013-06-27 15:07:00,71.1,68.0,29.85,SSE,158,0.0,3.0,90,0.00,,,0.00,meteohub,2013-06-27 19:07:00,
2013-06-27 15:12:00,71.1,68.0,29.85,ENE,68,2.0,3.0,90,0.00,,,0.00,meteohub,2013-06-27 19:12:00,
2013-06-27 15:17:00,71.1,68.4,29.85,NNW,338,3.0,3.0,91,0.00,,,0.00,meteohub,2013-06-27 19:17:00,
2013-06-27 15:22:00,70.9,68.2,29.85,NW,315,0.0,4.0,91,0.00,,,0.00,meteohub,2013-06-27 19:22:00,
2013-06-27 15:27:00,70.7,68.0,29.85,East,90,0.0,4.0,91,0.00,,,0.00,meteohub,2013-06-27 19:27:00,
2013-06-27 15:32:00,70.5,68.0,29.85,SSE,158,0.0,4.0,92,0.00,,,0.00,meteohub,2013-06-27 19:32:00,
2013-06-27 15:37:00,70.5,68.0,29.85,NNW,338,2.0,4.0,92,0.00,,,0.00,meteohub,2013-06-27 19:37:00,
2013-06-27 15:42:00,70.3,67.8,29.85,NNE,22,2.0,2.0,92,0.00,,,0.00,meteohub,2013-06-27 19:42:00,
2013-06-27 15:47:00,70.3,68.2,29.85,ENE,68,1.0,3.0,93,0.00,,,0.00,meteohub,2013-06-27 19:47:00,
2013-06-27 15:52:00,70.3,68.5,29.85,NNE,22,2.0,3.0,94,0.00,,,0.00,meteohub,2013-06-27 19:52:00,
2013-06-27 15:57:00,70.0,68.2,29.85,NNW,338,1.0,6.0,94,0.00,,,0.00,meteohub,2013-06-27 19:57:00,
2013-06-27 16:02:00,70.0,68.2,29.85,NE,45,0.0,6.0,94,0.00,,,0.00,meteohub,2013-06-27 20:02:00,
2013-06-27 16:07:00,69.8,68.0,29.85,ENE,68,2.0,6.0,94,0.00,,,0.00,meteohub,2013-06-27 20:07:00,
2013-06-27 16:12:00,69.6,67.8,29.85,West,270,0.0,6.0,94,0.00,,,0.00,meteohub,2013-06-27 20:12:00,
2013-06-27 16:17:00,69.6,67.8,29.85,NW,315,2.0,6.0,94,0.00,,,0.00,meteohub,2013-06-27 20:17:00,
2013-06-27 16:22:00,69.6,67.8,29.85,NE,45,0.0,6.0,94,0.04,,,0.04,meteohub,2013-06-27 20:22:00,
2013-06-27 16:27:00,69.6,67.8,29.85,East,90,2.0,6.0,94,0.04,,,0.04,meteohub,2013-06-27 20:27:00,
2013-06-27 16:32:00,69.6,67.8,29.85,NNE,22,1.0,4.0,94,0.04,,,0.04,meteohub,2013-06-27 20:32:00,
2013-06-27 16:37:00,69.6,67.8,29.85,North,0,3.0,4.0,94,0.04,,,0.04,meteohub,2013-06-27 20:37:00,
2013-06-27 16:42:00,69.8,68.0,29.85,NE,45,3.0,4.0,94,0.04,,,0.04,meteohub,2013-06-27 20:42:00,
2013-06-27 16:47:00,69.8,68.0,29.85,North,0,2.0,5.0,94,0.04,,,0.04,meteohub,2013-06-27 20:47:00,
2013-06-27 16:57:00,69.4,67.6,29.85,SW,225,2.0,5.0,94,0.04,,,0.04,meteohub,2013-06-27 20:57:00,
2013-06-27 17:02:00,69.3,67.5,29.85,ENE,68,2.0,6.0,94,0.04,,,0.04,meteohub,2013-06-27 21:02:00,
2013-06-27 17:07:00,69.1,66.9,29.85,ENE,68,4.0,6.0,93,0.04,,,0.04,meteohub,2013-06-27 21:07:00,
2013-06-27 17:12:00,68.7,66.6,29.85,ESE,112,1.0,6.0,93,0.04,,,0.04,meteohub,2013-06-27 21:12:00,
2013-06-27 17:22:00,68.5,66.4,29.85,North,0,4.0,4.0,93,0.00,,,0.04,meteohub,2013-06-27 21:22:00,
2013-06-27 17:27:00,68.4,66.2,29.85,East,90,3.0,4.0,93,0.00,,,0.04,meteohub,2013-06-27 21:27:00,
2013-06-27 17:37:00,67.8,66.0,29.85,NE,45,2.0,4.0,94,0.00,,,0.04,meteohub,2013-06-27 21:37:00,
2013-06-27 17:42:00,67.8,66.0,29.85,NE,45,0.0,4.0,94,0.00,,,0.04,meteohub,2013-06-27 21:42:00,
2013-06-27 17:52:00,67.5,65.7,29.85,NNE,22,1.0,5.0,94,0.00,,,0.04,meteohub,2013-06-27 21:52:00,
2013-06-27 18:02:00,67.5,66.0,29.85,ENE,68,1.0,3.0,95,0.00,,,0.04,meteohub,2013-06-27 22:02:00,
2013-06-27 18:07:00,67.3,65.8,29.85,ENE,68,1.0,2.0,95,0.00,,,0.04,meteohub,2013-06-27 22:07:00,
2013-06-27 18:17:00,66.9,65.5,29.85,WSW,248,2.0,3.0,95,0.00,,,0.04,meteohub,2013-06-27 22:17:00,
2013-06-27 18:22:00,66.9,65.5,29.85,North,0,2.0,4.0,95,0.00,,,0.04,meteohub,2013-06-27 22:22:00,
2013-06-27 18:32:00,66.6,65.3,29.85,SSE,158,3.0,6.0,96,0.00,,,0.04,meteohub,2013-06-27 22:32:00,
2013-06-27 18:42:00,66.6,65.3,29.85,West,270,2.0,4.0,96,0.00,,,0.04,meteohub,2013-06-27 22:42:00,
2013-06-27 18:47:00,66.4,65.1,29.85,WSW,248,1.0,4.0,96,0.00,,,0.04,meteohub,2013-06-27 22:47:00,
2013-06-27 18:52:00,66.2,64.9,29.85,SE,135,7.0,7.0,96,0.00,,,0.04,meteohub,2013-06-27 22:52:00,
2013-06-27 18:57:00,66.0,65.1,29.85,East,90,2.0,7.0,97,0.00,,,0.04,meteohub,2013-06-27 22:57:00,
2013-06-27 19:02:00,65.8,64.9,29.85,South,180,1.0,7.0,97,0.00,,,0.04,meteohub,2013-06-27 23:02:00,
2013-06-27 19:07:00,65.8,64.9,29.85,North,0,2.0,7.0,97,0.00,,,0.04,meteohub,2013-06-27 23:07:00,
2013-06-27 19:12:00,65.8,64.9,29.85,ENE,68,2.0,6.0,97,0.00,,,0.04,meteohub,2013-06-27 23:12:00,
2013-06-27 19:17:00,65.7,64.8,29.85,North,0,3.0,5.0,97,0.00,,,0.04,meteohub,2013-06-27 23:17:00,
2013-06-27 19:27:00,65.5,64.6,29.85,North,0,2.0,5.0,97,0.00,,,0.04,meteohub,2013-06-27 23:27:00,
2013-06-27 19:32:00,65.3,64.4,29.85,WNW,292,2.0,5.0,97,0.00,,,0.04,meteohub,2013-06-27 23:32:00,
2013-06-27 19:37:00,65.3,64.8,29.85,North,0,0.0,4.0,98,0.00,,,0.04,meteohub,2013-06-27 23:37:00,
2013-06-27 19:42:00,65.3,64.8,29.85,ENE,68,0.0,4.0,98,0.00,,,0.04,meteohub,2013-06-27 23:42:00,
2013-06-27 19:47:00,65.1,64.6,29.85,NNW,338,0.0,5.0,98,0.00,,,0.04,meteohub,2013-06-27 23:47:00,
2013-06-27 19:52:00,65.3,64.8,29.85,WNW,292,0.0,5.0,98,0.00,,,0.04,meteohub,2013-06-27 23:52:00,
2013-06-27 19:57:00,65.3,64.8,29.85,ESE,112,2.0,5.0,98,0.00,,,0.04,meteohub,2013-06-27 23:57:00,
2013-06-27 20:02:00,65.1,64.6,29.85,ENE,68,0.0,4.0,98,0.00,,,0.04,meteohub,2013-06-28 00:02:00,
2013-06-27 20:07:00,65.1,64.6,29.85,NNE,22,2.0,2.0,98,0.00,,,0.00,meteohub,2013-06-28 00:07:00,
2013-06-27 20:12:00,65.1,64.6,29.85,WSW,248,0.0,4.0,98,0.00,,,0.00,meteohub,2013-06-28 00:12:00,
2013-06-27 20:22:00,65.1,64.6,29.85,SSE,158,0.0,3.0,98,0.00,,,0.00,meteohub,2013-06-28 00:22:00,
2013-06-27 20:27:00,65.1,64.6,29.85,East,90,1.0,2.0,98,0.00,,,0.00,meteohub,2013-06-28 00:27:00,
2013-06-27 20:32:00,65.1,64.6,29.85,SSW,202,0.0,4.0,98,0.00,,,0.00,meteohub,2013-06-28 00:32:00,
2013-06-27 20:42:00,65.1,64.6,29.85,South,180,0.0,4.0,98,0.00,,,0.00,meteohub,2013-06-28 00:42:00,
2013-06-27 20:47:00,64.9,64.4,29.85,NE,45,0.0,3.0,98,0.00,,,0.00,meteohub,2013-06-28 00:47:00,
2013-06-27 20:57:00,64.9,64.4,29.85,NE,45,3.0,3.0,98,0.00,,,0.00,meteohub,2013-06-28 00:57:00,
2013-06-27 21:02:00,64.9,64.4,29.85,NE,45,0.0,3.0,98,0.00,,,0.00,meteohub,2013-06-28 01:02:00,
2013-06-27 21:07:00,64.9,64.4,29.85,West,270,1.0,3.0,98,0.00,,,0.00,meteohub,2013-06-28 01:07:00,
2013-06-27 21:12:00,64.9,64.4,29.85,NW,315,0.0,3.0,98,0.00,,,0.00,meteohub,2013-06-28 01:12:00,
2013-06-27 21:17:00,64.8,64.2,29.85,NW,315,0.0,2.0,98,0.00,,,0.00,meteohub,2013-06-28 01:17:00,
2013-06-27 21:22:00,64.8,64.2,29.82,SSW,202,0.0,1.0,98,0.00,,,0.00,meteohub,2013-06-28 01:22:00,
2013-06-27 21:32:00,64.8,64.2,29.82,ENE,68,0.0,2.0,98,0.00,,,0.00,meteohub,2013-06-28 01:32:00,
2013-06-27 21:37:00,64.8,64.2,29.85,NE,45,0.0,3.0,98,0.00,,,0.00,meteohub,2013-06-28 01:37:00,
2013-06-27 21:42:00,64.8,64.2,29.85,NNW,338,0.0,3.0,98,0.00,,,0.00,meteohub,2013-06-28 01:42:00,
2013-06-27 21:47:00,64.8,64.2,29.85,NE,45,2.0,3.0,98,0.00,,,0.00,meteohub,2013-06-28 01:47:00,
2013-06-27 21:52:00,64.8,64.2,29.85,ENE,68,0.0,4.0,98,0.00,,,0.00,meteohub,2013-06-28 01:52:00,
2013-06-27 21:57:00,64.8,64.2,29.85,WSW,248,0.0,4.0,98,0.00,,,0.00,meteohub,2013-06-28 01:57:00,
2013-06-27 22:02:00,64.8,64.2,29.85,NNW,338,2.0,4.0,98,0.00,,,0.00,meteohub,2013-06-28 02:02:00,
2013-06-27 22:07:00,64.8,64.2,29.85,NW,315,0.0,2.0,98,0.00,,,0.00,meteohub,2013-06-28 02:07:00,
2013-06-27 22:12:00,64.8,64.2,29.85,WSW,248,0.0,2.0,98,0.00,,,0.00,meteohub,2013-06-28 02:12:00,
2013-06-27 22:22:00,64.8,64.2,29.85,WNW,292,0.0,3.0,98,0.00,,,0.00,meteohub,2013-06-28 02:22:00,
2013-06-27 22:27:00,64.8,64.2,29.85,ENE,68,0.0,4.0,98,0.00,,,0.00,meteohub,2013-06-28 02:27:00,
2013-06-27 22:32:00,64.8,64.2,29.85,NNW,338,0.0,4.0,98,0.00,,,0.00,meteohub,2013-06-28 02:32:00,
2013-06-27 22:37:00,64.8,64.2,29.82,NE,45,0.0,4.0,98,0.00,,,0.00,meteohub,2013-06-28 02:37:00,
2013-06-27 22:42:00,64.8,64.2,29.82,ESE,112,0.0,4.0,98,0.00,,,0.00,meteohub,2013-06-28 02:42:00,
2013-06-27 22:47:00,64.8,64.2,29.82,NE,45,0.0,4.0,98,0.00,,,0.00,meteohub,2013-06-28 02:47:00,
2013-06-27 22:52:00,64.8,64.2,29.82,SW,225,0.0,2.0,98,0.00,,,0.00,meteohub,2013-06-28 02:52:00,
2013-06-27 22:57:00,64.6,64.0,29.82,NE,45,2.0,2.0,98,0.00,,,0.00,meteohub,2013-06-28 02:57:00,
2013-06-27 23:02:00,64.6,64.0,29.82,South,180,0.0,2.0,98,0.00,,,0.00,meteohub,2013-06-28 03:02:00,
2013-06-27 23:07:00,64.6,64.0,29.82,NNE,22,1.0,2.0,98,0.00,,,0.00,meteohub,2013-06-28 03:07:00,
2013-06-27 23:12:00,64.6,64.0,29.82,NNE,22,2.0,4.0,98,0.00,,,0.00,meteohub,2013-06-28 03:12:00,
2013-06-27 23:17:00,64.6,64.0,29.82,NW,315,0.0,4.0,98,0.00,,,0.00,meteohub,2013-06-28 03:17:00,
2013-06-27 23:22:00,64.6,64.0,29.82,North,0,2.0,4.0,98,0.00,,,0.00,meteohub,2013-06-28 03:22:00,
2013-06-27 23:27:00,64.4,63.9,29.82,WNW,292,0.0,2.0,98,0.00,,,0.00,meteohub,2013-06-28 03:27:00,
2013-06-27 23:32:00,64.4,63.9,29.82,WSW,248,0.0,2.0,98,0.00,,,0.00,meteohub,2013-06-28 03:32:00,
2013-06-27 23:37:00,64.4,63.9,29.82,East,90,1.0,2.0,98,0.00,,,0.00,meteohub,2013-06-28 03:37:00,
2013-06-27 23:42:00,64.4,63.9,29.82,East,90,0.0,3.0,98,0.00,,,0.00,meteohub,2013-06-28 03:42:00,
2013-06-27 23:47:00,64.4,63.9,29.82,West,270,0.0,3.0,98,0.00,,,0.00,meteohub,2013-06-28 03:47:00,
2013-06-27 23:52:00,64.4,63.9,29.82,NE,45,0.0,3.0,98,0.00,,,0.00,meteohub,2013-06-28 03:52:00,
2013-06-27 23:57:00,64.4,63.9,29.82,ENE,68,1.0,3.0,98,0.00,,,0.00,meteohub,2013-06-28 03:57:00,